When you browse on this site, cookies collect data to enhance your experience and personalize the content and advertising you see.
Visit our Privacy Policy to learn more. By continuing to use the site, you agree to this use of cookies and data.
EN

Hourly Weather Miszory

Today, 28 September, Monday

Time Temperature Precipitation Wind Pressure Humidity
00:00 +8°C° 0 mm 2 mps 753 mmHg 87%
01:00 +8°C° 0 mm 2 mps 753 mmHg 87%
02:00 +8°C° 0 mm 2 mps 753 mmHg 87%
03:00 +8°C° 0 mm 2 mps 753 mmHg 87%
04:00 +8°C° 0 mm 2 mps 754 mmHg 88%
05:00 +8°C° 0 mm 2 mps 754 mmHg 86%
06:00 +9°C° 0 mm 2 mps 754 mmHg 84%
07:00 +9°C° 0 mm 2 mps 755 mmHg 83%
08:00 +12°C° 0 mm 2 mps 755 mmHg 76%
09:00 +14°C° 0 mm 2 mps 755 mmHg 69%
10:00 +16°C° 0 mm 3 mps 754 mmHg 63%
11:00 +16°C° 0 mm 3 mps 754 mmHg 60%
12:00 +17°C° 0 mm 3 mps 754 mmHg 58%
13:00 +18°C° 0 mm 4 mps 754 mmHg 55%
14:00 +18°C° 0 mm 4 mps 754 mmHg 58%
15:00 +17°C° 0 mm 3 mps 754 mmHg 60%
16:00 +17°C° 0 mm 3 mps 753 mmHg 63%
17:00 +16°C° 0 mm 3 mps 753 mmHg 65%
18:00 +14°C° 0 mm 3 mps 753 mmHg 68%
19:00 +13°C° 0 mm 3 mps 753 mmHg 70%
20:00 +13°C° 0 mm 3 mps 753 mmHg 72%
21:00 +13°C° 0 mm 3 mps 753 mmHg 74%
22:00 +13°C° 0 mm 3 mps 753 mmHg 76%
23:00 +12°C° 0 mm 3 mps 753 mmHg 78%

Tomorrow, 29 September, Tuesday

Time Temperature Precipitation Wind Pressure Humidity
00:00 +12°C° 0 mm 3 mps 753 mmHg 79%
01:00 +12°C° 0 mm 3 mps 753 mmHg 80%
02:00 +12°C° 0 mm 3 mps 753 mmHg 81%
03:00 +12°C° 0 mm 3 mps 753 mmHg 81%
04:00 +12°C° 0 mm 3 mps 753 mmHg 82%
05:00 +12°C° 0 mm 3 mps 753 mmHg 82%
06:00 +12°C° 0 mm 3 mps 753 mmHg 82%
07:00 +12°C° 0 mm 4 mps 752 mmHg 82%
08:00 +13°C° 0 mm 4 mps 752 mmHg 78%
09:00 +14°C° 0 mm 4 mps 752 mmHg 73%
10:00 +17°C° 0 mm 4 mps 752 mmHg 69%
11:00 +17°C° 0 mm 4 mps 752 mmHg 67%
12:00 +18°C° 0 mm 4 mps 752 mmHg 66%
13:00 +18°C° 0 mm 3 mps 752 mmHg 65%
14:00 +18°C° 0 mm 3 mps 752 mmHg 67%
15:00 +18°C° 0 mm 3 mps 752 mmHg 69%
16:00 +18°C° 0 mm 3 mps 752 mmHg 71%
17:00 +17°C° 0 mm 3 mps 752 mmHg 72%
18:00 +16°C° 0 mm 3 mps 752 mmHg 72%
19:00 +16°C° 0 mm 3 mps 752 mmHg 73%
20:00 +14°C° 0 mm 3 mps 752 mmHg 75%
21:00 +14°C° 0 mm 3 mps 752 mmHg 78%
22:00 +13°C° 0 mm 3 mps 753 mmHg 80%
23:00 +13°C° 0 mm 3 mps 752 mmHg 82%

Day after tomorrow, 30 September, Wednesday

Time Temperature Precipitation Wind Pressure Humidity
00:00 +12°C° 0 mm 3 mps 752 mmHg 84%
01:00 +12°C° 0 mm 3 mps 752 mmHg 86%
02:00 +12°C° 0 mm 3 mps 752 mmHg 86%
03:00 +11°C° 0 mm 3 mps 752 mmHg 86%
04:00 +11°C° 0 mm 3 mps 752 mmHg 86%
05:00 +11°C° 0 mm 3 mps 752 mmHg 84%
06:00 +12°C° 0 mm 4 mps 752 mmHg 83%
07:00 +12°C° 0 mm 4 mps 752 mmHg 82%
08:00 +13°C° 0 mm 4 mps 752 mmHg 78%
09:00 +14°C° 0 mm 5 mps 752 mmHg 74%
10:00 +16°C° 0 mm 5 mps 752 mmHg 70%
11:00 +17°C° 0 mm 5 mps 751 mmHg 67%
12:00 +19°C° 0 mm 6 mps 751 mmHg 65%
13:00 +20°C° 0 mm 6 mps 751 mmHg 62%
14:00 +19°C° 0 mm 5 mps 750 mmHg 64%
15:00 +19°C° 0 mm 5 mps 750 mmHg 66%
16:00 +19°C° 0 mm 4 mps 750 mmHg 68%
17:00 +18°C° 0.2 mm 4 mps 750 mmHg 72%
18:00 +17°C° 0.2 mm 4 mps 750 mmHg 76%
19:00 +15°C° 0.2 mm 5 mps 751 mmHg 80%
20:00 +15°C° 0.1 mm 4 mps 750 mmHg 81%
21:00 +16°C° 0.1 mm 3 mps 750 mmHg 83%
22:00 +16°C° 0.1 mm 3 mps 750 mmHg 84%
23:00 +14°C° 0 mm 3 mps 750 mmHg 85%

1 October, Thursday

Time Temperature Precipitation Wind Pressure Humidity
00:00 +14°C° 0 mm 3 mps 750 mmHg 85%
01:00 +13°C° 0 mm 3 mps 750 mmHg 86%
02:00 +13°C° 0 mm 3 mps 750 mmHg 88%
03:00 +12°C° 0 mm 3 mps 750 mmHg 90%
04:00 +11°C° 0 mm 3 mps 749 mmHg 92%
05:00 +11°C° 0 mm 3 mps 749 mmHg 89%
06:00 +11°C° 0 mm 3 mps 749 mmHg 87%
07:00 +11°C° 0 mm 3 mps 749 mmHg 84%
08:00 +12°C° 0 mm 3 mps 749 mmHg 78%
09:00 +14°C° 0 mm 3 mps 749 mmHg 71%
10:00 +16°C° 0 mm 3 mps 748 mmHg 65%
11:00 +16°C° 0 mm 3 mps 748 mmHg 65%
12:00 +17°C° 0 mm 3 mps 748 mmHg 65%
13:00 +17°C° 0 mm 3 mps 748 mmHg 65%
14:00 +17°C° 0 mm 3 mps 748 mmHg 68%
15:00 +16°C° 0 mm 3 mps 748 mmHg 72%
16:00 +14°C° 0 mm 3 mps 747 mmHg 76%
17:00 +13°C° 0 mm 3 mps 747 mmHg 80%
18:00 +14°C° 0 mm 2 mps 747 mmHg 84%
19:00 +13°C° 0 mm 2 mps 748 mmHg 88%
20:00 +13°C° 0 mm 2 mps 747 mmHg 90%
21:00 +13°C° 0 mm 2 mps 747 mmHg 91%
22:00 +12°C° 0 mm 2 mps 747 mmHg 93%
23:00 +12°C° 0 mm 2 mps 747 mmHg 93%

2 October, Friday

Time Temperature Precipitation Wind Pressure Humidity
00:00 +12°C° 0 mm 2 mps 747 mmHg 94%
01:00 +12°C° 0 mm 2 mps 747 mmHg 94%
02:00 +12°C° 0 mm 2 mps 747 mmHg 94%
03:00 +12°C° 0 mm 2 mps 747 mmHg 94%
04:00 +12°C° 0 mm 2 mps 747 mmHg 94%
05:00 +12°C° 0 mm 2 mps 747 mmHg 94%
06:00 +12°C° 0 mm 2 mps 747 mmHg 94%
07:00 +11°C° 0 mm 3 mps 747 mmHg 94%
08:00 +12°C° 0 mm 3 mps 747 mmHg 90%
09:00 +13°C° 0 mm 3 mps 747 mmHg 87%
10:00 +14°C° 0 mm 2 mps 747 mmHg 84%
11:00 +15°C° 0 mm 2 mps 747 mmHg 81%
12:00 +16°C° 0 mm 2 mps 746 mmHg 79%
13:00 +16°C° 0 mm 2 mps 746 mmHg 76%
14:00 +16°C° 0 mm 2 mps 746 mmHg 77%
15:00 +16°C° 0 mm 2 mps 746 mmHg 77%
16:00 +16°C° 0 mm 2 mps 746 mmHg 77%
17:00 +16°C° 0.1 mm 2 mps 746 mmHg 80%
18:00 +15°C° 0.1 mm 2 mps 746 mmHg 83%
19:00 +14°C° 0.1 mm 2 mps 746 mmHg 86%
20:00 +14°C° 0 mm 2 mps 746 mmHg 87%
21:00 +14°C° 0 mm 2 mps 747 mmHg 89%
22:00 +13°C° 0 mm 2 mps 747 mmHg 90%
23:00 +13°C° 0 mm 2 mps 746 mmHg 90%

3 October, Saturday

Time Temperature Precipitation Wind Pressure Humidity
00:00 +12°C° 0 mm 3 mps 746 mmHg 90%
01:00 +12°C° 0 mm 3 mps 746 mmHg 90%
02:00 +12°C° 0 mm 3 mps 746 mmHg 92%
03:00 +11°C° 0 mm 4 mps 746 mmHg 93%
04:00 +11°C° 0 mm 4 mps 746 mmHg 95%
05:00 +11°C° 0 mm 4 mps 745 mmHg 94%
06:00 +10°C° 0 mm 5 mps 745 mmHg 92%
07:00 +12°C° 0 mm 5 mps 745 mmHg 91%
08:00 +13°C° 0 mm 6 mps 745 mmHg 86%
09:00 +15°C° 0 mm 7 mps 744 mmHg 80%
10:00 +16°C° 0 mm 8 mps 744 mmHg 75%
11:00 +17°C° 0 mm 8 mps 743 mmHg 72%
12:00 +18°C° 0 mm 9 mps 743 mmHg 69%
13:00 +19°C° 0 mm 9 mps 743 mmHg 66%
14:00 +20°C° 0 mm 8 mps 743 mmHg 66%
15:00 +20°C° 0 mm 8 mps 742 mmHg 66%
16:00 +20°C° 0 mm 8 mps 742 mmHg 66%
17:00 +20°C° 0 mm 8 mps 742 mmHg 67%
18:00 +18°C° 0 mm 7 mps 742 mmHg 67%
19:00 +18°C° 0 mm 7 mps 742 mmHg 67%
20:00 +18°C° 0.2 mm 8 mps 742 mmHg 70%
21:00 +18°C° 0.2 mm 8 mps 742 mmHg 72%
22:00 +17°C° 0.2 mm 8 mps 742 mmHg 75%
23:00 +18°C° 0.1 mm 8 mps 742 mmHg 74%
Show more